Dewpoint
53 55 54 54 54 54 53 54 55 56 56 56 56 56 57 57 57 57 57 57 57 57 58 58 59 59 59 60 60 60 58 47 42 39 27 31 55 62 64 65 65 62 56 32 31 28 26 29 28 31 34 35 35 36 37 38 36 32 25 23 19 16 18 21 24 24 26 23 22 22 21 23 23 22 25 24 21 21 22 21 21 22 21 23 26 27 32 43
54 54 54 53 54 54 54 54 54 55 56 56 57 56 56 56 57 56 57 57 58 58 58 58 58 59 59 60 60 60 54 43 37 32 29 43 66 68 67 66 65 61 47 31 29 28 25 24 30 30 30 27 37 32 36 35 35 28 26 21 18 22 21 24 24 25 22 22 22 23 23 23 23 23 23 21 21 21 21 22 22 21 21 21 25 32 34 36
53 54 53 54 54 54 54 54 55 54 56 55 56 56 56 56 57 57 57 57 58 58 58 58 59 59 60 60 60 59 46 33 26 25 31 57 66 67 66 65 62 55 35 31 31 26 25 25 29 28 30 26 29 34 34 34 36 32 26 21 24 25 22 26 26 24 23 24 24 25 25 24 24 23 24 24 20 21 20 19 21 20 21 21 28 34 36 36
53 53 53 54 54 53 53 54 55 55 55 56 55 55 56 57 57 57 57 57 58 58 58 58 58 59 59 60 60 56 37 27 23 23 31 60 67 67 66 62 59 45 32 32 30 30 30 30 30 30 30 26 28 33 28 29 29 31 25 23 25 27 24 22 27 26 24 25 26 24 24 23 24 23 24 21 19 22 19 21 21 20 20 25 33 35 36 36
53 52 52 52 53 53 53 54 55 55 55 56 56 55 55 56 56 57 57 57 58 58 57 58 58 59 59 60 59 46 29 16 22 29 34 64 67 66 64 59 55 35 32 30 28 28 29 29 29 30 27 26 28 26 26 33 31 31 25 27 27 29 26 25 28 29 28 27 25 24 23 25 24 23 23 23 21 19 20 21 22 23 30 34 34 35 35 35
53 53 53 53 53 53 53 54 55 55 55 55 55 56 56 56 57 57 57 57 57 57 57 58 58 58 59 59 45 37 24 10 23 32 59 66 66 65 62 59 52 32 31 30 29 30 28 26 26 29 25 21 22 17 17 33 33 25 25 29 30 29 26 28 27 27 24 26 24 25 25 22 21 21 22 22 20 21 24 29 33 33 33 35 34 35 34 35
54 53 54 54 53 54 53 53 54 55 55 55 56 56 56 56 56 57 57 57 57 57 57 58 58 58 58 55 42 34 28 25 35 37 63 64 65 64 61 59 50 35 31 30 29 30 29 26 26 28 23 21 20 21 23 24 31 25 21 27 28 30 28 29 29 27 27 26 23 24 23 22 21 19 22 20 20 22 30 34 34 34 34 34 33 34 34 34
55 54 54 53 53 53 53 53 53 54 55 56 55 56 56 57 57 57 57 57 57 57 58 57 58 58 57 40 36 35 35 33 35 43 60 57 52 55 51 41 38 38 32 30 28 28 28 25 23 27 21 18 18 22 24 23 27 29 27 29 29 30 29 29 27 24 24 24 24 24 22 20 20 20 21 20 20 26 33 34 33 33 33 33 33 33 33 33
55 55 54 54 54 53 53 53 53 54 55 55 56 56 57 57 57 57 57 58 57 57 57 57 57 58 55 40 35 29 27 39 41 50 54 46 43 40 40 38 35 33 32 32 32 30 30 27 26 22 18 21 23 22 23 20 21 30 26 28 24 21 21 22 22 21 21 21 21 21 19 20 20 23 19 19 19 27 33 33 33 32 32 32 32 33 33 33
55 55 55 54 54 54 54 54 53 54 54 55 56 56 57 57 57 57 57 58 57 57 56 57 58 57 43 37 34 26 32 44 56 56 53 44 40 39 39 39 34 32 30 31 29 28 28 26 28 27 24 23 23 21 25 23 21 27 27 25 22 22 21 24 21 22 22 22 21 20 19 21 21 22 19 19 21 25 32 32 32 32 32 32 32 32 32 32
56 56 56 55 55 55 54 53 54 54 54 55 56 56 57 57 57 57 58 57 57 56 56 58 57 50 38 34 30 27 41 47 52 55 48 40 38 36 39 38 36 35 33 35 30 28 29 27 32 28 30 20 22 23 24 23 23 22 22 22 22 21 21 21 21 20 21 20 20 20 19 22 20 23 18 18 26 33 31 31 31 31 31 31 31 32 33 32
56 57 58 56 56 55 55 54 53 54 55 55 55 56 57 57 57 57 57 56 56 56 57 57 55 44 33 32 29 29 43 45 52 48 46 44 44 44 43 40 37 38 33 31 35 39 33 29 30 24 22 27 22 24 23 24 24 24 22 22 22 22 22 23 21 20 23 19 20 20 20 21 22 17 22 20 30 32 31 31 31 31 31 31 31 31 31 32
58 58 58 58 57 55 55 54 54 54 55 55 55 56 57 57 57 57 56 56 57 57 57 57 53 46 33 27 28 36 39 44 49 44 44 44 43 43 43 42 40 36 35 33 34 39 37 32 29 26 30 25 24 24 26 25 24 22 22 21 21 21 23 22 22 21 21 20 20 22 23 22 19 19 19 26 23 32 30 30 30 30 30 31 31 31 31 31
57 58 59 58 57 56 55 54 54 54 55 55 56 57 57 57 57 57 56 56 56 57 58 56 50 38 27 25 29 34 43 51 47 43 43 45 39 42 40 38 37 35 39 36 40 40 37 35 31 28 31 26 25 31 24 23 24 23 23 24 23 23 23 23 23 22 22 22 21 22 25 21 22 19 25 30 24 31 30 30 30 30 30 30 31 30 30 30
57 58 59 58 57 57 56 54 53 54 55 56 56 57 57 57 57 56 56 57 56 57 57 55 43 33 29 29 34 39 55 50 48 47 47 41 40 39 37 35 34 34 34 36 37 40 37 35 31 28 27 28 28 25 23 24 24 24 22 24 25 22 24 23 27 23 22 18 19 21 25 21 20 19 30 30 29 30 30 30 30 30 30 30 30 29 29 29
58 58 58 57 57 57 56 56 54 54 55 57 58 58 58 57 57 56 56 57 54 57 51 46 47 32 28 28 34 52 42 39 45 44 42 44 41 39 41 35 36 32 32 31 34 32 32 32 29 28 26 25 24 24 25 26 27 23 23 26 24 23 22 20 23 24 25 18 19 20 21 18 20 20 30 31 31 30 29 29 29 29 29 29 29 29 28 29
58 58 58 57 57 56 57 56 55 55 56 57 58 58 58 58 56 56 58 56 52 52 51 42 47 37 29 34 35 34 35 39 41 41 41 40 41 39 36 35 33 32 33 33 35 34 31 28 30 29 26 25 24 27 24 25 24 25 24 23 26 21 21 20 22 24 25 19 17 22 19 17 18 26 30 30 31 29 29 29 29 29 29 29 29 28 28 27
58 58 58 57 57 56 56 56 54 55 56 57 58 57 56 57 58 57 55 53 50 48 45 47 43 33 28 35 30 31 41 40 41 40 39 37 38 35 33 31 32 30 31 31 31 30 31 29 30 28 26 23 23 26 25 22 24 24 22 23 21 21 21 20 21 23 22 23 22 22 21 21 22 27 30 30 30 29 29 29 29 29 28 28 28 27 27 27
58 58 58 58 57 57 56 55 54 55 56 58 58 57 57 55 47 48 48 45 37 35 32 34 31 28 27 31 35 41 42 42 41 41 39 36 36 33 33 32 33 31 29 28 28 27 28 29 30 26 25 24 22 24 24 25 25 23 23 23 23 21 21 20 21 23 23 22 22 22 22 23 23 23 29 30 29 29 29 29 29 28 28 28 27 27 27 26
58 58 59 58 57 56 55 55 55 56 57 57 54 52 45 43 41 42 43 44 40 33 32 33 34 35 34 33 37 40 41 40 38 39 40 40 33 32 30 29 32 29 26 28 29 28 30 27 25 25 25 24 24 24 25 25 24 24 25 25 22 22 23 24 24 24 24 22 21 22 22 22 22 26 29 30 30 29 29 28 28 28 28 28 27 27 27 26
58 59 59 58 57 56 56 55 56 56 57 57 55 48 41 40 33 31 38 42 43 42 37 37 36 34 31 35 39 37 35 35 37 38 39 40 32 30 29 28 28 27 28 30 29 27 28 25 25 26 25 24 24 23 22 21 22 22 23 23 21 25 21 22 23 25 26 24 23 22 23 24 23 28 29 29 30 29 29 28 28 27 27 27 27 26 26 26
58 59 59 58 57 56 56 55 55 57 58 57 53 46 44 42 39 38 39 34 39 42 43 41 40 37 39 36 38 38 37 34 35 37 39 37 31 28 28 28 27 25 29 28 27 26 25 24 24 25 25 24 23 22 22 22 23 23 21 23 22 21 24 24 25 26 26 24 22 23 22 23 24 27 28 28 28 29 29 29 29 27 26 26 26 26 25 25
58 59 59 58 57 57 56 56 56 57 56 54 52 50 47 47 44 43 41 37 39 42 41 41 40 40 39 41 41 37 34 33 32 36 37 37 31 30 28 27 27 28 28 26 26 26 26 27 26 26 25 24 24 22 21 23 23 22 22 21 21 24 25 25 25 26 25 23 23 25 22 23 27 27 27 28 28 28 29 28 28 28 26 26 25 25 25 24
58 58 58 58 57 57 57 56 57 57 55 54 52 49 47 44 43 42 43 39 37 41 41 42 41 40 40 38 40 35 34 33 34 34 39 33 29 33 28 27 27 27 26 26 27 26 26 28 27 26 26 25 24 23 23 22 22 26 24 23 22 25 24 24 24 26 25 25 24 22 24 22 25 25 27 27 29 27 27 26 26 26 28 27 26 26 26 24
58 58 58 58 57 57 56 57 55 54 55 54 53 54 53 46 43 42 40 39 36 37 42 40 41 41 41 40 38 35 35 37 36 37 38 33 30 29 29 30 28 27 28 27 27 28 28 29 29 26 26 25 26 23 25 26 24 25 26 24 23 24 23 24 26 24 24 25 24 21 22 21 23 24 26 27 27 27 27 25 25 25 25 25 24 25 25 26
58 58 58 57 57 57 57 53 53 54 54 52 53 53 55 49 44 42 38 32 34 35 38 37 43 39 42 38 38 37 38 34 36 38 38 35 39 31 30 28 30 28 28 27 26 28 28 29 30 29 27 27 27 26 27 27 25 25 26 26 24 24 25 25 25 26 22 21 24 23 20 18 23 23 26 26 26 26 26 26 26 25 25 25 25 25 24 24
58 58 58 57 57 57 53 49 54 55 51 51 55 51 48 47 44 42 35 32 30 36 36 39 39 38 38 36 38 39 33 36 35 36 35 39 33 36 30 29 30 29 28 28 31 30 28 28 28 29 28 27 26 25 27 26 26 26 28 27 26 25 25 26 26 26 24 26 27 24 25 19 20 23 26 26 25 25 25 25 26 25 24 23 23 24 24 25
58 58 58 58 57 56 53 53 53 53 51 50 48 49 46 46 44 43 37 30 27 37 35 36 37 39 36 31 37 38 36 35 34 35 34 36 34 32 33 30 30 29 27 32 29 31 29 28 28 28 28 28 27 28 28 28 28 27 28 28 26 25 26 26 26 24 23 22 23 23 26 20 19 22 25 26 25 25 25 25 25 24 24 23 23 23 23 24
58 58 57 57 57 56 56 54 54 52 51 48 47 47 46 45 43 40 36 29 34 31 38 34 40 34 33 35 32 31 31 29 33 34 34 34 34 32 32 31 31 29 27 33 32 30 27 29 29 30 29 27 28 28 28 29 27 28 28 27 26 26 25 25 23 22 21 20 18 20 24 18 21 24 23 25 25 24 25 25 25 25 24 23 23 23 23 23
58 58 57 57 56 55 55 55 54 54 49 48 48 46 45 43 41 36 32 28 35 31 35 34 31 32 33 35 34 30 29 28 30 31 31 32 30 31 29 31 28 28 28 27 28 31 27 32 32 29 28 29 28 28 28 28 28 28 27 26 26 24 23 23 22 20 18 16 21 23 23 21 18 23 23 24 25 25 25 25 26 26 25 24 23 22 23 22
58 57 57 57 54 54 54 51 54 50 49 48 47 46 46 46 39 34 29 35 36 31 32 31 28 33 35 35 34 32 27 27 31 31 30 30 28 28 28 30 29 28 27 27 26 27 27 27 27 27 31 28 28 27 27 28 27 27 26 25 25 24 18 17 12 19 15 15 16 18 22 21 18 19 23 24 25 26 25 25 25 24 24 23 23 23 22 22
57 57 57 56 55 55 52 50 55 50 49 48 48 45 44 37 38 32 30 35 31 32 31 30 27 31 34 29 29 26 28 29 29 30 29 29 28 28 28 31 29 24 25 26 27 26 26 27 28 27 33 28 27 27 26 28 26 27 25 25 21 17 15 14 12 14 15 15 19 23 22 21 20 22 23 23 25 25 26 26 25 24 23 23 22 22 23 23
57 57 56 56 55 54 54 54 53 51 49 50 48 47 41 36 30 36 35 33 30 30 29 30 28 30 31 30 28 27 28 29 28 29 29 28 28 28 28 29 29 30 27 25 28 23 25 26 27 27 28 30 29 26 25 25 25 26 25 23 19 14 9 6 9 5 11 14 19 22 22 19 22 23 24 24 25 26 26 26 27 25 23 23 22 22 22 23
57 57 55 55 55 55 55 54 53 50 48 50 47 44 38 33 30 37 36 34 32 30 28 27 28 29 31 31 29 28 29 28 30 30 30 28 28 28 29 28 27 26 25 24 27 25 19 20 25 27 27 29 28 27 27 27 25 25 26 25 24 17 4 12 7 14 15 15 19 20 15 15 19 21 24 25 26 26 25 25 26 27 25 23 22 23 22 22
57 56 56 55 54 55 55 54 52 50 49 49 45 41 33 33 35 35 36 35 31 31 28 28 29 29 29 26 27 27 31 27 29 28 28 29 28 29 29 29 28 28 26 25 26 22 24 24 26 28 28 28 28 28 28 27 26 24 26 26 21 22 21 16 13 8 7 13 13 15 17 20 21 19 26 25 24 23 25 24 26 26 24 23 22 22 21 21
56 55 56 53 53 54 56 54 52 52 50 47 42 36 34 36 33 36 36 36 33 29 27 27 27 27 25 26 26 28 28 26 28 28 27 28 28 29 29 30 29 28 26 26 25 21 22 22 27 28 27 28 28 28 26 27 23 24 25 21 25 26 22 17 12 11 11 12 17 11 19 23 24 24 24 25 22 22 22 23 25 25 23 22 21 21 20 21
54 55 51 53 53 55 55 55 53 52 50 46 41 35 39 37 39 37 41 35 33 28 27 26 26 26 25 26 26 27 27 29 28 28 26 28 27 28 27 28 30 29 27 28 26 26 23 23 27 27 26 28 29 28 28 28 28 25 21 24 27 27 26 21 16 11 5 12 15 16 18 19 19 19 24 23 23 23 22 22 23 24 22 21 21 21 21 21
53 52 52 52 54 55 56 55 53 51 48 44 38 39 40 38 39 37 37 32 28 30 29 29 29 28 26 26 25 27 29 27 26 26 25 27 25 29 27 27 29 30 28 28 25 27 27 21 25 27 27 29 28 28 27 28 28 26 25 28 24 19 18 21 17 13 12 11 12 13 18 18 19 20 23 23 23 23 22 22 22 22 21 21 20 20 20 20
53 51 47 51 55 56 56 55 53 48 44 39 38 39 41 40 41 38 38 38 38 31 29 32 32 30 28 26 26 28 29 27 27 25 24 26 24 28 27 29 28 30 29 27 26 27 27 22 24 29 28 29 28 28 24 25 28 28 27 25 27 23 18 18 20 17 18 12 9 15 14 17 20 20 22 21 23 24 22 21 21 22 22 21 20 20 20 20
50 47 46 49 55 56 56 55 50 47 42 36 37 37 42 40 41 42 41 39 38 34 35 33 34 33 32 29 29 27 31 28 26 26 26 27 26 31 26 33 29 30 31 28 28 31 26 26 18 25 28 27 25 26 25 25 25 24 24 24 24 21 24 23 18 18 17 7 10 12 17 16 21 23 23 21 23 24 23 23 23 23 22 22 21 22 20 20
49 46 45 49 53 56 55 51 45 41 40 42 41 39 40 39 41 42 42 43 42 43 39 38 37 32 34 33 30 32 30 29 28 27 28 28 27 26 31 31 31 30 31 29 27 29 25 25 24 24 25 25 26 28 27 27 27 25 25 24 25 23 19 18 20 20 14 16 16 10 18 15 24 25 24 24 24 25 24 24 24 23 23 23 23 21 21 21
47 41 43 50 53 55 50 43 43 45 42 40 39 41 40 45 41 41 42 42 42 41 42 40 38 37 35 34 35 33 32 30 30 28 29 29 30 31 32 33 31 32 28 27 26 30 31 27 25 21 25 27 28 28 30 28 29 28 27 26 27 25 25 20 19 19 17 19 15 13 13 20 26 27 26 26 25 24 24 24 24 24 24 22 22 22 21 21
46 43 47 48 52 53 48 42 43 42 40 42 44 43 43 42 40 41 42 42 41 41 40 39 40 37 38 37 35 33 33 30 31 30 31 31 31 33 34 35 34 33 34 31 31 30 34 26 22 23 26 28 29 30 30 29 29 28 28 27 26 25 26 24 24 23 22 18 18 15 17 21 26 27 26 26 26 25 24 23 23 24 23 23 22 22 21 21
43 42 44 49 51 51 45 37 37 40 41 42 42 42 43 42 41 40 41 42 41 40 40 38 39 41 38 37 35 34 35 30 34 33 32 33 33 34 35 36 35 34 34 30 29 33 27 29 29 22 23 25 28 29 30 30 29 27 27 27 27 27 27 26 27 27 21 23 22 21 19 22 25 27 26 24 25 25 25 24 23 23 24 23 22 22 22 21
43 43 43 45 48 48 41 41 40 39 40 40 40 40 41 41 42 42 41 41 42 40 39 39 40 40 38 38 36 36 37 36 33 34 33 34 34 33 34 34 34 33 36 37 38 36 31 31 29 25 24 23 23 23 25 27 29 29 28 28 28 28 27 26 24 24 22 26 25 22 22 26 28 28 25 25 24 23 25 25 25 24 24 23 23 22 22 22
40 35 40 41 44 44 42 43 41 40 38 39 38 39 40 40 40 41 43 42 43 41 41 40 39 40 37 37 35 36 36 37 36 34 34 33 33 33 32 32 33 35 38 39 37 36 31 32 31 29 27 26 26 27 29 32 30 28 30 29 30 30 30 30 29 27 24 27 25 26 27 27 28 26 25 25 24 24 24 24 24 24 24 24 24 23 23 23
39 35 35 33 41 41 39 41 40 40 37 40 35 39 38 39 40 40 43 40 42 41 39 40 39 38 36 37 36 36 36 35 34 34 34 33 31 32 32 32 33 36 38 37 36 34 32 31 31 29 29 29 29 30 30 32 30 31 31 30 31 30 30 29 28 27 31 27 26 30 29 28 28 26 26 25 25 25 25 25 24 24 24 24 24 24 27 23
35 36 39 40 36 33 36 36 40 39 39 38 36 37 37 38 39 37 40 40 40 41 39 38 39 40 38 38 37 34 35 35 34 34 32 32 32 33 32 32 32 34 36 34 33 34 32 31 29 31 31 30 31 31 31 31 31 31 31 31 30 31 29 29 29 31 30 28 26 28 28 28 29 28 28 27 26 26 25 25 25 25 25 25 25 24 25 23
38 35 37 40 36 36 37 39 39 38 36 36 33 35 34 37 37 38 38 37 38 37 40 33 36 38 38 39 37 34 35 33 33 32 32 32 32 32 31 32 33 32 33 32 33 31 32 28 26 30 28 28 27 28 27 28 27 27 28 29 30 30 29 30 30 30 29 29 28 27 27 28 31 28 30 30 28 26 25 26 25 25 24 25 25 25 24 24
34 35 33 37 36 34 35 38 38 36 32 35 33 33 34 34 34 37 38 36 32 35 39 36 35 36 37 36 35 33 34 35 33 33 33 33 32 32 32 33 32 32 32 32 33 34 33 29 31 28 26 24 23 25 26 26 27 27 28 28 28 27 28 28 28 28 28 27 27 27 26 27 29 27 27 27 27 27 26 26 24 25 25 25 25 25 25 25
37 36 37 35 32 33 34 36 34 34 33 33 33 33 33 34 34 37 37 39 36 34 37 35 37 36 35 36 36 35 35 34 34 34 35 34 33 34 33 33 34 32 32 32 31 32 32 29 26 27 27 25 21 25 24 23 23 26 27 28 26 26 26 26 26 27 27 26 27 27 27 27 27 25 24 23 24 25 25 25 25 25 25 25 25 25 25 26
37 35 37 37 32 36 33 34 35 34 31 34 35 35 34 34 36 38 33 36 36 38 39 38 38 37 34 35 35 36 37 37 37 36 37 37 36 35 36 35 35 33 32 32 30 31 31 28 26 24 25 26 21 23 21 22 22 24 26 27 26 27 28 22 26 26 27 27 26 25 26 28 25 25 24 23 23 23 23 23 24 24 25 25 25 25 26 26